Rbgn^[z[y[W
メイン
   新天体発見情報
     Comet C/2023 V5 (Leonard)
投稿するにはまず登録を

スレッド表示 | 新しいものから 前のトピック | 次のトピック | 下へ
投稿者 スレッド
佐藤裕久
投稿日時: 2023-11-28 23:49
モデレータ
登録日: 2005-6-12
居住地: 日本
投稿: 2559
オンライン
Comet C/2023 V5 (Leonard)

Gregory J. Leonard (アリゾナ大学月惑星研究所. LPL)の通報によると、11月6日、Catalina Sky 
サーベイの0.68-m Schmidt 望遠鏡で得た画像から彗星を発見した。
この彗星は、4枚の30-秒露出で中程度に集光した10"のコマが見えるが尾は見えない。
小惑星センターのPCCP webpageに公表後、A. C. Gilmoreと P. M. Kilmartin (11月6.4日UT, Mount 
John大学天文台, 1.0-m f/7.7 反射望遠鏡: p.a. 60°に拡散したエッジによる 7"のコマが見える。
11"の範囲で測定した光度は18.3-19.1等であった)、吉本勝巳氏(山口県熊毛郡平生町, 11月6.49日、
15-秒露出16枚のスタック, 0.51-m f/6.8 反射望遠鏡, Siding Spring, 遠隔操作; 全光度は17.8等
で拡散した15"のコマが見えるで尾はない)や佐藤英貴氏(東京都文京区, 11月6.53-6.58日, 8-秒
露出30枚のスタック, 0.51-m f/6.8 アストログラフ, Siding Spring, NSW, オーストラリア, 
遠隔操作: 強く集光した12"のコマが見えるが尾はない。6".5の円形範囲で測定した光度は17.9等で
あった)らCCD位置観測者によって彗星状と観測された。

彗星機能の報告は次のとおり、

OC   Date        Reporter           Coma    Tail    PA          Exposures
Q62  2023-11-06  K. Yoshimoto      15"
Q62  2023-11-06  H. Sato           12"                           30x8s
J95  2023-11-06  P. Birtwhistle     8"       16"     75          80x10s
J95  2023-11-07  P. Birtwhistle    12"       35"     78          71x10s
204  2023-11-07  A. Aletti          8"       15"     75 
W62  2023-11-10  J. Maikner        10"       20"   70-85        195x8s

発見位置は次のとおり、

     2023 UT             R.A. (2000) Decl.       Mag.   Observer
     Nov.  6.14346   22 17 57.49   - 8 47 42.1   17.4   Leonard
           6.14852   22 17 51.86   - 8 46 39.7   17.7     "
           6.15358   22 17 46.19   - 8 45 38.3            "
           6.15865   22 17 40.47   - 8 44 37.0   17.8     "

MPCの双曲線軌道要素、位置推算表は次のとおり、

Orbital elements:
    C/2023 V5 (Leonard)                                                         
Epoch 2023 Sept. 13.0 TT = JDT 2460200.5                                        
T 2023 Dec. 13.70382 TT                                 Rudenko                 
q   0.8472824            (2000.0)            P               Q                  
z  -0.0194071      Peri.   56.74297     +0.34522155     -0.79334537             
 +/-0.0007997      Node    31.49032     +0.12686195     -0.48991992             
e   1.0164433      Incl.   73.72526     +0.92990759     +0.36136076             
From 137 observations 2023 Nov. 6-10, mean residual 0".8.                       
                                                                                
Ephemeris:
Date    TT    R. A. (2000) Decl.     Delta      r    Elong.  Phase   m1
2023 10 12    04 01 25.1 -34 43 03   0.5953  1.4031   121.3    37.4  21.8
...
2023 10 27    01 47 37.0 -33 55 58   0.2906  1.2123   133.4    36.6  19.7
...
2023 11 04    23 00 24.2 -16 10 43   0.2250  1.1174   118.7    51.2  18.7
...
2023 11 10    21 17 20.9 +02 51 48   0.2710  1.0514    95.4    69.7  18.9
2023 11 11    21 04 50.7 +05 17 59   0.2848  1.0409    92.2    71.9  18.9
2023 11 12    20 53 29.4 +07 29 27   0.2998  1.0306    89.2    73.9  19.0
...
2023 11 18    20 03 41.7 +16 34 15   0.4050  0.9730    75.9    80.3  19.4
...
2023 11 26    19 25 26.3 +22 28 28   0.5617  0.9099    65.4    80.5  19.8
...
2023 12 11    18 45 38.2 +26 27 39   0.8460  0.8488    54.6    71.1  20.4

(MPEC 2023-V193、CBET 5316)

スレッド表示 | 新しいものから 前のトピック | 次のトピック | トップ

投稿するにはまず登録を
 
© 1999 Tsutomu Seki.